Grand Junction, CO

4:46 PM MST on December 15, 2019 (GMT -0700)
Walker

Weather History for KGJT - March, 2019

Change the Weather History Date:

Sunday, March 17, 2019

  Actual Average Record
Temperature  
Mean Temperature 45 °F 44 °F  
Max Temperature 59 °F 57 °F 76 °F (2017)
Min Temperature 30 °F 32 °F 14 °F (1923)
Degree Days  
Heating Degree Days 20 21  
Month to date heating degree days 393 387  
Since 1 July heating degree days 4848 4766  
Cooling Degree Days 0 0  
Month to date cooling degree days 0 0  
Year to date cooling degree days 0 0  
Moisture  
Dew Point 24 °F    
Average Humidity 53    
Maximum Humidity 85    
Minimum Humidity 21    
Precipitation  
Precipitation 0.00 in 0.03 in 0.45 in (1905)
Month to date precipitation 1.83 0.45  
Year to date precipitation 3.27 1.57  
Snow  
Snow 0.00 in 0.10 in 4.30 in (1975)
Month to date snowfall 0.0 1.4  
Since 1 July snowfall 17.4 16.9  
Snow Depth 0.00 in    
Sea Level Pressure  
Sea Level Pressure 30.21 in    
Wind  
Wind Speed 5 mph (East)    
Max Wind Speed 14 mph    
Max Gust Speed 16 mph    
Visibility 10 miles    
Events      
T = Trace of Precipitation, MM = Missing Value Source: NWS Daily Summary

Daily Weather History Graph

Daily Weather History Graph

Search for Another Location

Airport or City:

Astronomy

Mar. 17, 2019 Rise Set
Actual Time 7:22 AM MDT 7:22 PM MDT
Civil Twilight 6:55 AM MDT 7:49 PM MDT
Nautical Twilight 6:24 AM MDT 8:20 PM MDT
Astronomical Twilight 5:53 AM MDT 8:52 PM MDT
Moon 3:34 PM MDT (3/17) 5:18 AM MDT (3/17)
Length of Visible Light 12h 53m
Length of Day
12h 00m
Waxing Gibbous, 85% of the Moon is Illuminated
Mar 17
Waxing Gibbous
Mar 20
Full
Mar 27
Last Quarter
Apr 5
New
Apr 12
First Quarter

Hourly Weather History & Observations

Time (MDT) Temp. Windchill Dew Point Humidity Pressure Visibility Wind Dir Wind Speed Gust Speed Precip Events Conditions
12:53 AM 35.1 °F 32.2 °F 26.1 °F 70% 30.25 in 10.0 mi ENE 3.5 mph - N/A   Clear
1:53 AM 34.0 °F - 26.1 °F 73% 30.25 in 10.0 mi Calm Calm - N/A   Clear
2:53 AM 30.9 °F 27.5 °F 26.1 °F 82% 30.25 in 10.0 mi ENE 3.5 mph - N/A   Clear
3:53 AM 32.0 °F 27.5 °F 25.0 °F 75% 30.24 in 10.0 mi East 4.6 mph - N/A   Clear
4:53 AM 33.1 °F 25.5 °F 25.0 °F 72% 30.23 in 10.0 mi SE 9.2 mph - N/A   Clear
5:53 AM 33.1 °F 26.9 °F 24.1 °F 70% 30.25 in 10.0 mi SE 6.9 mph - N/A   Clear
6:53 AM 30.9 °F 21.2 °F 24.1 °F 76% 30.27 in 10.0 mi ESE 12.7 mph - N/A   Clear
7:53 AM 32.0 °F 25.6 °F 24.1 °F 73% 30.30 in 10.0 mi SE 6.9 mph - N/A   Clear
8:53 AM 37.0 °F 28.9 °F 26.1 °F 65% 30.31 in 10.0 mi ESE 12.7 mph - N/A   Clear
9:53 AM 42.1 °F 37.1 °F 25.0 °F 51% 30.30 in 10.0 mi SE 8.1 mph - N/A   Clear
10:53 AM 46.0 °F 42.5 °F 24.1 °F 42% 30.29 in 10.0 mi SSE 6.9 mph - N/A   Clear
11:53 AM 48.9 °F - 24.1 °F 38% 30.27 in 10.0 mi Calm Calm - N/A   Clear
12:53 PM 51.1 °F - 24.1 °F 35% 30.25 in 10.0 mi Calm Calm - N/A   Clear
1:53 PM 55.0 °F - 25.0 °F 31% 30.20 in 10.0 mi Calm Calm - N/A   Clear
2:53 PM 57.0 °F - 21.9 °F 26% 30.18 in 10.0 mi Calm Calm - N/A   Clear
3:53 PM 57.0 °F - 21.0 °F 25% 30.15 in 10.0 mi Variable 4.6 mph - N/A   Clear
4:53 PM 57.9 °F - 21.9 °F 25% 30.14 in 10.0 mi NNW 8.1 mph - N/A   Clear
5:53 PM 57.0 °F - 18.0 °F 22% 30.13 in 10.0 mi NW 6.9 mph - N/A   Clear
6:53 PM 54.0 °F - 21.9 °F 29% 30.14 in 10.0 mi NW 5.8 mph - N/A   Clear
7:53 PM 48.9 °F - 23.0 °F 36% 30.15 in 10.0 mi North 4.6 mph - N/A   Clear
8:53 PM 42.1 °F - 28.0 °F 58% 30.16 in 10.0 mi Calm Calm - N/A   Clear
9:53 PM 37.9 °F - 28.0 °F 68% 30.16 in 10.0 mi Calm Calm - N/A   Clear
10:53 PM 39.9 °F 35.1 °F 26.1 °F 58% 30.16 in 10.0 mi East 6.9 mph - N/A   Clear
11:53 PM 39.9 °F 36.7 °F 24.1 °F 53% 30.15 in 10.0 mi East 4.6 mph - N/A   Clear